Weather History for KEWN - October, 2013

Change the Weather History Date:

Saturday, October 12, 2013

  Actual Average Record
Temperature  
Mean Temperature 68 °F 65 °F  
Max Temperature 72 °F 76 °F 88 °F (1954)
Min Temperature 64 °F 55 °F 39 °F (2000)
Degree Days  
Heating Degree Days 0 3  
Month to date heating degree days 2 21  
Since 1 July heating degree days 4 28  
Cooling Degree Days 3 3  
Month to date cooling degree days 66 48  
Year to date cooling degree days 1951 1851  
Growing Degree Days 18 (Base 50)    
Moisture  
Dew Point 64 °F    
Average Humidity 83    
Maximum Humidity 93    
Minimum Humidity 73    
Precipitation  
Precipitation 0.00 in 0.10 in 1.46 in (1977)
Month to date precipitation 2.73 1.46  
Year to date precipitation 35.35 44.15  
Snow  
Snow 0.00 in - - ()
Month to date snowfall 0.0  
Since 1 July snowfall 0.0  
Snow Depth 0.00 in    
Sea Level Pressure  
Sea Level Pressure 30.00 in    
Wind  
Wind Speed 4 mph (WNW)    
Max Wind Speed 9 mph    
Max Gust Speed 13 mph    
Visibility 10 miles    
Events      
T = Trace of Precipitation, MM = Missing Value Source: NWS Daily Summary

Daily Weather History Graph

Daily Weather History Graph

Search for Another Location

Airport or City:

Trip Planner

Search our weather history database for the weather conditions in past years. The results will help you decide how hot, cold, wet, or windy it might be!

Date:

Astronomy

Oct. 12, 2013 Rise Set
Actual Time 7:11 AM EDT 6:36 PM EDT
Civil Twilight 6:46 AM EDT 7:02 PM EDT
Nautical Twilight 6:17 AM EDT 7:31 PM EDT
Astronomical Twilight 5:47 AM EDT 8:00 PM EDT
Moon 2:31 PM EDT (10/12) 12:27 AM EDT (10/12)
Length of Visible Light 12h 15m
Length of Day
11h 24m
First Quarter, 58% of the Moon is Illuminated
Oct 12
First Quarter
Oct 18
Full
Oct 26
Last Quarter
Nov 3
New
Nov 10
First Quarter

Hourly Weather History & Observations

Time (EDT) Temp. Dew Point Humidity Pressure Visibility Wind Dir Wind Speed Gust Speed Precip Events Conditions
12:14 AM 64.4 °F 62.6 °F 94% 29.95 in 10.0 mi WNW 3.5 mph - N/A   Overcast
12:54 AM 64.9 °F 62.1 °F 90% 29.95 in 10.0 mi WNW 3.5 mph - N/A   Overcast
1:54 AM 64.9 °F 62.1 °F 90% 29.95 in 10.0 mi WNW 3.5 mph - N/A   Overcast
2:54 AM 64.9 °F 62.1 °F 90% 29.94 in 10.0 mi Variable 3.5 mph - N/A   Overcast
3:54 AM 64.9 °F 62.1 °F 90% 29.94 in 10.0 mi West 3.5 mph - N/A   Overcast
4:54 AM 64.9 °F 62.1 °F 90% 29.95 in 10.0 mi WNW 4.6 mph - N/A   Overcast
5:02 AM 64.4 °F 62.6 °F 94% 29.95 in 10.0 mi NW 3.5 mph - N/A   Overcast
5:54 AM 64.0 °F 61.0 °F 90% 29.97 in 10.0 mi NW 4.6 mph - N/A   Overcast
6:54 AM 64.0 °F 61.0 °F 90% 29.98 in 10.0 mi NW 5.8 mph - N/A   Overcast
7:54 AM 64.0 °F 62.1 °F 93% 29.99 in 10.0 mi Calm Calm - N/A   Overcast
8:54 AM 64.9 °F 61.0 °F 87% 30.00 in 10.0 mi NW 5.8 mph - N/A   Overcast
9:54 AM 66.0 °F 62.1 °F 87% 30.00 in 10.0 mi NW 3.5 mph - N/A   Overcast
10:54 AM 68.0 °F 62.1 °F 81% 30.00 in 10.0 mi WSW 4.6 mph - N/A   Overcast
11:11 AM 68.0 °F 62.6 °F 83% 30.01 in 10.0 mi WNW 5.8 mph - N/A   Overcast
11:54 AM 69.1 °F 63.0 °F 81% 30.01 in 10.0 mi WNW 5.8 mph - N/A   Overcast
12:54 PM 70.0 °F 63.0 °F 78% 30.01 in 10.0 mi NW 4.6 mph - N/A   Overcast
1:54 PM 70.0 °F 63.0 °F 78% 29.99 in 10.0 mi WNW 5.8 mph - N/A   Overcast
2:54 PM 71.1 °F 63.0 °F 75% 29.99 in 10.0 mi Calm Calm - N/A   Overcast
3:54 PM 71.1 °F 64.0 °F 78% 29.99 in 10.0 mi NW 4.6 mph - N/A   Overcast
4:19 PM 71.6 °F 64.4 °F 78% 29.99 in 10.0 mi WNW 3.5 mph - N/A   Overcast
4:54 PM 71.1 °F 64.0 °F 78% 30.00 in 10.0 mi Calm Calm - N/A   Overcast
5:54 PM 71.1 °F 64.9 °F 81% 30.01 in 10.0 mi West 3.5 mph - N/A   Overcast
6:54 PM 70.0 °F 66.0 °F 87% 30.02 in 10.0 mi West 3.5 mph - N/A   Overcast
7:54 PM 69.1 °F 66.0 °F 90% 30.04 in 10.0 mi WNW 3.5 mph - N/A   Overcast
8:08 PM 69.8 °F 66.2 °F 88% 30.04 in 10.0 mi WNW 4.6 mph - N/A   Overcast
8:54 PM 69.1 °F 66.0 °F 90% 30.04 in 10.0 mi West 3.5 mph - N/A   Overcast
9:14 PM 69.8 °F 66.2 °F 88% 30.04 in 10.0 mi Calm Calm - N/A   Overcast
9:54 PM 69.1 °F 66.0 °F 90% 30.04 in 10.0 mi WNW 4.6 mph - N/A   Overcast
10:54 PM 69.1 °F 66.9 °F 93% 30.04 in 10.0 mi NW 3.5 mph - N/A   Overcast
11:54 PM 69.1 °F 66.0 °F 90% 30.04 in 10.0 mi North 6.9 mph - N/A   Overcast